Regional Weather Roundup
Issued by NWS Huntsville, AL

Home | Current Version | Previous Version | Text Only | Print | Product List | Glossary On
Versions: 1 2 3 4 5 6 7 8 9 10 11 12 13 14 15 16 17 18 19 20 21 22 23 24 25 26 27 28 29 30 31 32 33 34 35 36 37 38 39 40 41 42 43 44 45 46 47 48 49 50
229
ASUS44 KHUN 102310
RWRHUN

WEATHER ROUNDUP FOR THE TENNESSEE VALLEY
NATIONAL WEATHER SERVICE HUNTSVILLE AL
500 PM CST SAT DEC 10 2016

ALZ001>004-110000-
NORTHWEST ALABAMA

CITY           SKY/WX    TMP DP  RH WIND       PRES   REMARKS
COURTLAND HCN    N/A     39 N/A N/A E3          N/A
RUSSELLVILLE     N/A     39 N/A N/A MISG        N/A
SHOALS AIRPORT CLEAR     38  18  44 E5        30.43F WCI  34
SHOALS TVA RES   N/A     41 N/A N/A MISG        N/A
$$

ALZ005>007-016-110000-
NORTH CENTRAL ALABAMA

CITY           SKY/WX    TMP DP  RH WIND       PRES   REMARKS
CULLMAN AG STN   N/A     41 N/A N/A CALM        N/A
DECATUR AP     CLEAR     36  19  50 NE3       30.43F
HUNTSVILLE AP  PTCLDY    40  16  37 NE3       30.42F
MERIDIANVILLE  CLEAR     36  21  55 CALM      30.43F
REDSTONE ARSN  CLEAR     39  13  35 CALM      30.41F
VINEMONT AP    FAIR      36  18  49 CALM      30.42F
$$

ALZ008>010-110000-
NORTHEAST ALABAMA

CITY           SKY/WX    TMP DP  RH WIND       PRES   REMARKS
ALBERTVILLE    CLEAR     37  25  60 N3        30.41S
FORT PAYNE     CLEAR     37  10  32 CALM      30.42S
SCOTTSBORO AP  CLEAR     37  16  41 CALM      30.44F
SCOTTSBORO HCN   N/A     36 N/A N/A MISG        N/A
VALLEY HEAD      N/A     37 N/A N/A MISG        N/A
$$

TNZ076-096-097-110000-
SOUTHEASTERN MIDDLE TENNESSEE

CITY           SKY/WX    TMP DP  RH WIND       PRES   REMARKS
TULLAHOMA      CLEAR     36   9  32 CALM      30.43F
WINCHESTER     CLEAR     34  16  47 CALM      30.43F
$$

...SURROUNDING SITES...

CITY           SKY/WX    TMP DP  RH WIND       PRES   REMARKS
ATLANTA        PTCLDY    46  15  28 CALM      30.42S
ANNISTON       CLEAR     44  11  26 N5        30.43S
BIRMINGHAM     CLEAR     44  17  33 NE3       30.43F
CHATTANOOGA    PTCLDY    40   8  26 NE5       30.45F
CORINTH        FAIR      41  14  33 E3        30.41S
DALTON         CLEAR     36  19  51 CALM      30.44S
GADSDEN        CLEAR     41  19  41 CALM      30.45S
GOLDEN TRNGL   CLEAR     45  16  31 CALM      30.38F
JACKSON TN     CLEAR     38  15  39 E3        30.42F
MEMPHIS        PTCLDY    44  12  27 SE5       30.40F
NASHVILLE      PTCLDY    37  11  34 E3        30.46F
OXFORD MS      FAIR      39  16  38 CALM      30.42S
ROME           CLEAR     39  15  37 CALM      30.43F
SAVANNAH       CLEAR     39  19  45 CALM      30.42S
TUPELO         CLEAR     44  13  28 NE5       30.42S
TUSCALOOSA     CLEAR     43  18  36 NE3       30.42F
$$

...GULF COAST WEATHER...

CITY           SKY/WX    TMP DP  RH WIND       PRES   REMARKS
GULFPORT       CLEAR     51  22  31 NE5       30.40S
PASCAGOULA     CLEAR     46  25  43 CALM      30.40R
MOBILE         PTCLDY    47  19  33 N3        30.40S
GULF SHORES    CLEAR     49  23  35 NE3       30.39S
PENSACOLA      PTCLDY    48  25  40 CALM      30.39S
DESTIN         CLEAR     54  19  25 NE3       30.38F
PANAMA CITY    CLEAR     52  25  35 N6        30.38S
APPALACHICOLA  CLEAR     52  25  35 NE7       30.37R
$$





USA.gov is the U.S. government's official web portal to all federal, state and local government web resources and services.